LOCATION_NAME,SAMPLE COLLECTION TIME,DOSE EQUIVALENT RATE (nSv/h),GAMMA COUNT RATE R02 (CPM),GAMMA COUNT RATE R03 (CPM),GAMMA COUNT RATE R04 (CPM),GAMMA COUNT RATE R05 (CPM),GAMMA COUNT RATE R06 (CPM),GAMMA COUNT RATE R07 (CPM),GAMMA COUNT RATE R08 (CPM),GAMMA COUNT RATE R09 (CPM),STATUS
KS: KANSAS CITY,01/01/2020 00:08:00,,2156.00,1368.00,421.00,235.00,141.00,164.00,103.00,36.00,APPROVED
KS: KANSAS CITY,01/01/2020 01:08:00,,2174.00,1361.00,421.00,237.00,139.00,163.00,101.00,36.00,APPROVED
KS: KANSAS CITY,01/01/2020 02:08:00,,2181.00,1358.00,424.00,228.00,142.00,162.00,99.00,35.00,APPROVED
KS: KANSAS CITY,01/01/2020 03:08:00,,2213.00,1380.00,422.00,229.00,141.00,163.00,98.00,37.00,APPROVED
KS: KANSAS CITY,01/01/2020 04:09:00,,2219.00,1386.00,428.00,234.00,142.00,166.00,100.00,35.00,APPROVED
KS: KANSAS CITY,01/01/2020 05:09:00,,2229.00,1398.00,430.00,234.00,143.00,167.00,99.00,38.00,APPROVED
KS: KANSAS CITY,01/01/2020 06:09:00,,2249.00,1410.00,434.00,238.00,140.00,169.00,103.00,38.00,APPROVED
KS: KANSAS CITY,01/01/2020 07:09:00,,2258.00,1416.00,437.00,237.00,141.00,169.00,102.00,37.00,APPROVED
KS: KANSAS CITY,01/01/2020 08:10:00,,2262.00,1423.00,437.00,243.00,143.00,166.00,103.00,37.00,APPROVED
KS: KANSAS CITY,01/01/2020 09:10:00,,2263.00,1442.00,437.00,238.00,141.00,169.00,102.00,38.00,APPROVED
KS: KANSAS CITY,01/01/2020 10:10:00,,2274.00,1434.00,443.00,236.00,144.00,169.00,100.00,37.00,APPROVED
KS: KANSAS CITY,01/01/2020 11:10:00,,2270.00,1448.00,442.00,242.00,142.00,169.00,103.00,38.00,APPROVED
KS: KANSAS CITY,01/01/2020 12:10:00,,2279.00,1453.00,439.00,245.00,147.00,170.00,102.00,39.00,APPROVED
KS: KANSAS CITY,01/01/2020 13:11:00,,2253.00,1441.00,440.00,241.00,144.00,168.00,102.00,38.00,APPROVED
KS: KANSAS CITY,01/01/2020 14:11:00,,2251.00,1422.00,435.00,242.00,145.00,172.00,104.00,37.00,APPROVED
KS: KANSAS CITY,01/01/2020 15:11:00,,2250.00,1428.00,430.00,242.00,146.00,169.00,102.00,39.00,APPROVED
KS: KANSAS CITY,01/01/2020 16:11:00,,2230.00,1429.00,438.00,242.00,145.00,170.00,103.00,40.00,APPROVED
KS: KANSAS CITY,01/01/2020 17:11:00,,2178.00,1409.00,430.00,246.00,145.00,171.00,106.00,39.00,APPROVED
KS: KANSAS CITY,01/01/2020 18:12:00,,2122.00,1391.00,431.00,243.00,143.00,171.00,108.00,38.00,APPROVED
KS: KANSAS CITY,01/01/2020 19:12:00,,2081.00,1369.00,425.00,248.00,146.00,171.00,106.00,36.00,APPROVED
KS: KANSAS CITY,01/01/2020 20:12:00,,2065.00,1367.00,425.00,245.00,146.00,174.00,108.00,39.00,APPROVED
KS: KANSAS CITY,01/01/2020 21:12:00,,2061.00,1364.00,422.00,246.00,145.00,170.00,106.00,41.00,APPROVED
KS: KANSAS CITY,01/01/2020 22:12:00,,2042.00,1350.00,426.00,244.00,143.00,173.00,107.00,39.00,APPROVED
KS: KANSAS CITY,01/01/2020 23:13:00,,2040.00,1344.00,416.00,239.00,145.00,169.00,107.00,39.00,APPROVED
KS: KANSAS CITY,01/02/2020 00:13:00,,2096.00,1367.00,426.00,243.00,143.00,174.00,107.00,39.00,APPROVED
KS: KANSAS CITY,01/02/2020 01:13:00,,2124.00,1377.00,421.00,241.00,144.00,169.00,106.00,39.00,APPROVED
KS: KANSAS CITY,01/02/2020 02:13:00,,2150.00,1402.00,432.00,242.00,142.00,172.00,107.00,38.00,APPROVED
KS: KANSAS CITY,01/02/2020 03:13:00,,2162.00,1409.00,430.00,247.00,147.00,172.00,106.00,39.00,APPROVED
KS: KANSAS CITY,01/02/2020 04:14:00,,2187.00,1412.00,433.00,245.00,147.00,174.00,106.00,40.00,APPROVED
KS: KANSAS CITY,01/02/2020 05:14:00,,2227.00,1428.00,442.00,242.00,146.00,171.00,104.00,39.00,APPROVED
KS: KANSAS CITY,01/02/2020 06:14:00,,2228.00,1435.00,441.00,247.00,147.00,174.00,106.00,38.00,APPROVED
KS: KANSAS CITY,01/02/2020 07:14:00,,2253.00,1449.00,444.00,250.00,146.00,172.00,105.00,40.00,APPROVED
KS: KANSAS CITY,01/02/2020 08:14:00,,2259.00,1464.00,448.00,254.00,151.00,175.00,107.00,40.00,APPROVED
KS: KANSAS CITY,01/02/2020 09:15:00,,2243.00,1464.00,447.00,258.00,148.00,176.00,110.00,39.00,APPROVED
KS: KANSAS CITY,01/02/2020 10:15:00,,2247.00,1441.00,443.00,255.00,151.00,174.00,108.00,39.00,APPROVED
KS: KANSAS CITY,01/02/2020 11:15:00,,2246.00,1445.00,440.00,254.00,144.00,173.00,105.00,40.00,APPROVED
KS: KANSAS CITY,01/02/2020 12:15:00,,2224.00,1439.00,444.00,248.00,146.00,172.00,108.00,38.00,APPROVED
KS: KANSAS CITY,01/02/2020 13:15:00,,2232.00,1432.00,438.00,250.00,148.00,172.00,105.00,40.00,APPROVED
KS: KANSAS CITY,01/02/2020 14:16:00,,2238.00,1432.00,433.00,250.00,151.00,173.00,106.00,38.00,APPROVED
KS: KANSAS CITY,01/02/2020 15:16:00,,2219.00,1438.00,437.00,254.00,148.00,174.00,106.00,40.00,APPROVED
KS: KANSAS CITY,01/02/2020 16:16:00,,2139.00,1408.00,441.00,250.00,151.00,174.00,109.00,40.00,APPROVED
KS: KANSAS CITY,01/02/2020 17:16:00,,2074.00,1384.00,436.00,255.00,149.00,176.00,108.00,41.00,APPROVED
KS: KANSAS CITY,01/02/2020 18:16:00,,2037.00,1370.00,432.00,255.00,151.00,176.00,114.00,40.00,APPROVED
KS: KANSAS CITY,01/02/2020 19:33:00,,2055.00,1318.00,414.00,226.00,141.00,164.00,103.00,37.00,APPROVED
KS: KANSAS CITY,01/02/2020 20:33:00,,2055.00,1363.00,431.00,250.00,146.00,172.00,107.00,40.00,APPROVED
KS: KANSAS CITY,01/02/2020 21:34:00,,2062.00,1381.00,433.00,258.00,146.00,181.00,111.00,42.00,APPROVED
KS: KANSAS CITY,01/02/2020 22:34:00,,2068.00,1391.00,438.00,260.00,153.00,182.00,112.00,41.00,APPROVED
KS: KANSAS CITY,01/02/2020 23:34:00,,2111.00,1420.00,444.00,263.00,149.00,181.00,113.00,43.00,APPROVED
KS: KANSAS CITY,01/03/2020 00:34:00,,2163.00,1474.00,455.00,277.00,156.00,186.00,116.00,43.00,APPROVED
KS: KANSAS CITY,01/03/2020 01:34:00,,2235.00,1536.00,467.00,288.00,159.00,193.00,118.00,44.00,APPROVED
KS: KANSAS CITY,01/03/2020 02:35:00,,2350.00,1607.00,485.00,298.00,166.00,203.00,122.00,47.00,APPROVED
KS: KANSAS CITY,01/03/2020 03:35:00,,2371.00,1634.00,497.00,310.00,167.00,205.00,125.00,48.00,APPROVED
KS: KANSAS CITY,01/03/2020 04:35:00,,2300.00,1585.00,477.00,300.00,167.00,202.00,122.00,46.00,APPROVED
KS: KANSAS CITY,01/03/2020 05:35:00,,2305.00,1579.00,481.00,298.00,164.00,200.00,119.00,46.00,APPROVED
KS: KANSAS CITY,01/03/2020 06:35:00,,2334.00,1593.00,488.00,302.00,167.00,202.00,118.00,47.00,APPROVED
KS: KANSAS CITY,01/03/2020 07:36:00,,2311.00,1587.00,490.00,296.00,164.00,198.00,120.00,45.00,APPROVED
KS: KANSAS CITY,01/03/2020 08:36:00,,2293.00,1557.00,473.00,290.00,163.00,195.00,118.00,44.00,APPROVED
KS: KANSAS CITY,01/03/2020 09:36:00,,2266.00,1524.00,469.00,281.00,157.00,189.00,114.00,44.00,APPROVED
KS: KANSAS CITY,01/03/2020 10:36:00,,2250.00,1507.00,457.00,275.00,155.00,187.00,114.00,42.00,APPROVED
KS: KANSAS CITY,01/03/2020 11:36:00,,2249.00,1495.00,464.00,272.00,153.00,180.00,113.00,41.00,APPROVED
KS: KANSAS CITY,01/03/2020 12:37:00,,2257.00,1489.00,453.00,266.00,153.00,185.00,111.00,44.00,APPROVED
KS: KANSAS CITY,01/03/2020 13:37:00,,2257.00,1487.00,457.00,267.00,151.00,181.00,109.00,43.00,APPROVED
KS: KANSAS CITY,01/03/2020 14:37:00,,2279.00,1489.00,455.00,267.00,151.00,180.00,107.00,40.00,APPROVED
KS: KANSAS CITY,01/03/2020 15:37:00,,2257.00,1485.00,456.00,267.00,151.00,182.00,107.00,41.00,APPROVED
KS: KANSAS CITY,01/03/2020 16:37:00,,2232.00,1488.00,456.00,270.00,152.00,188.00,110.00,43.00,APPROVED
KS: KANSAS CITY,01/03/2020 17:38:00,,2202.00,1460.00,453.00,270.00,152.00,183.00,113.00,43.00,APPROVED
KS: KANSAS CITY,01/03/2020 18:38:00,,2194.00,1467.00,447.00,269.00,154.00,181.00,113.00,43.00,APPROVED
KS: KANSAS CITY,01/03/2020 19:38:00,,2136.00,1442.00,444.00,260.00,153.00,176.00,110.00,42.00,APPROVED
KS: KANSAS CITY,01/03/2020 20:38:00,,2127.00,1398.00,441.00,253.00,150.00,177.00,110.00,41.00,APPROVED
KS: KANSAS CITY,01/03/2020 21:38:00,,2120.00,1387.00,429.00,245.00,146.00,172.00,107.00,40.00,APPROVED
KS: KANSAS CITY,01/03/2020 22:39:00,,2117.00,1378.00,426.00,243.00,145.00,167.00,104.00,39.00,APPROVED
KS: KANSAS CITY,01/03/2020 23:39:00,,2148.00,1383.00,423.00,238.00,145.00,166.00,108.00,39.00,APPROVED
KS: KANSAS CITY,01/04/2020 00:39:00,,2158.00,1395.00,430.00,238.00,142.00,169.00,103.00,37.00,APPROVED
KS: KANSAS CITY,01/04/2020 01:39:00,,2146.00,1364.00,422.00,230.00,141.00,163.00,102.00,38.00,APPROVED
KS: KANSAS CITY,01/04/2020 02:40:00,,2121.00,1322.00,414.00,222.00,138.00,158.00,99.00,36.00,APPROVED
KS: KANSAS CITY,01/04/2020 03:40:00,,2117.00,1303.00,403.00,214.00,133.00,153.00,95.00,35.00,APPROVED
KS: KANSAS CITY,01/04/2020 04:40:00,,2138.00,1311.00,401.00,211.00,132.00,152.00,94.00,36.00,APPROVED
KS: KANSAS CITY,01/04/2020 05:40:00,,2144.00,1303.00,398.00,207.00,133.00,150.00,92.00,33.00,APPROVED
KS: KANSAS CITY,01/04/2020 06:40:00,,2145.00,1303.00,401.00,209.00,132.00,148.00,94.00,34.00,APPROVED
KS: KANSAS CITY,01/04/2020 07:41:00,,2142.00,1310.00,399.00,205.00,132.00,148.00,91.00,33.00,APPROVED
KS: KANSAS CITY,01/04/2020 08:41:00,,2145.00,1311.00,395.00,205.00,135.00,147.00,94.00,34.00,APPROVED
KS: KANSAS CITY,01/04/2020 09:41:00,,2138.00,1301.00,397.00,206.00,130.00,147.00,91.00,32.00,APPROVED
KS: KANSAS CITY,01/04/2020 10:41:00,,2145.00,1300.00,401.00,202.00,129.00,147.00,92.00,33.00,APPROVED
KS: KANSAS CITY,01/04/2020 11:41:00,,2143.00,1306.00,400.00,204.00,131.00,149.00,91.00,32.00,APPROVED
KS: KANSAS CITY,01/04/2020 12:42:00,,2156.00,1312.00,394.00,202.00,130.00,149.00,89.00,32.00,APPROVED
KS: KANSAS CITY,01/04/2020 13:42:00,,2152.00,1301.00,405.00,201.00,127.00,152.00,90.00,34.00,APPROVED
KS: KANSAS CITY,01/04/2020 14:42:00,,2154.00,1314.00,406.00,207.00,131.00,150.00,91.00,33.00,APPROVED
KS: KANSAS CITY,01/04/2020 15:42:00,,2163.00,1316.00,400.00,203.00,131.00,146.00,90.00,34.00,APPROVED
KS: KANSAS CITY,01/04/2020 16:42:00,,2155.00,1308.00,402.00,208.00,132.00,151.00,92.00,33.00,APPROVED
KS: KANSAS CITY,01/04/2020 17:43:00,,2127.00,1297.00,405.00,215.00,136.00,151.00,96.00,34.00,APPROVED
KS: KANSAS CITY,01/04/2020 18:43:00,,2097.00,1302.00,406.00,215.00,137.00,157.00,96.00,34.00,APPROVED
KS: KANSAS CITY,01/04/2020 19:43:00,,2082.00,1302.00,409.00,216.00,135.00,157.00,99.00,34.00,APPROVED
KS: KANSAS CITY,01/04/2020 20:43:00,,2072.00,1301.00,408.00,219.00,135.00,154.00,97.00,35.00,APPROVED
KS: KANSAS CITY,01/04/2020 21:43:00,,2063.00,1295.00,397.00,216.00,135.00,157.00,98.00,36.00,APPROVED
KS: KANSAS CITY,01/04/2020 22:44:00,,2025.00,1285.00,404.00,212.00,134.00,157.00,98.00,34.00,APPROVED
KS: KANSAS CITY,01/04/2020 23:44:00,,2052.00,1278.00,403.00,214.00,133.00,152.00,97.00,35.00,APPROVED
KS: KANSAS CITY,01/05/2020 00:44:00,,2083.00,1290.00,404.00,211.00,135.00,155.00,97.00,34.00,APPROVED
KS: KANSAS CITY,01/05/2020 01:44:00,,2110.00,1306.00,405.00,214.00,133.00,154.00,98.00,35.00,APPROVED
KS: KANSAS CITY,01/05/2020 02:44:00,,2122.00,1318.00,406.00,215.00,139.00,154.00,99.00,35.00,APPROVED
KS: KANSAS CITY,01/05/2020 03:45:00,,2143.00,1315.00,410.00,217.00,134.00,154.00,97.00,35.00,APPROVED
KS: KANSAS CITY,01/05/2020 04:45:00,,2146.00,1326.00,412.00,222.00,135.00,157.00,99.00,36.00,APPROVED
KS: KANSAS CITY,01/05/2020 05:45:00,,2141.00,1332.00,412.00,224.00,134.00,156.00,97.00,35.00,APPROVED
KS: KANSAS CITY,01/05/2020 06:45:00,,2136.00,1327.00,414.00,219.00,137.00,158.00,96.00,37.00,APPROVED
KS: KANSAS CITY,01/05/2020 07:45:00,,2155.00,1326.00,407.00,219.00,135.00,154.00,98.00,35.00,APPROVED
KS: KANSAS CITY,01/05/2020 08:46:00,,2147.00,1315.00,409.00,219.00,137.00,156.00,95.00,35.00,APPROVED
KS: KANSAS CITY,01/05/2020 09:46:00,,2132.00,1316.00,409.00,216.00,135.00,157.00,98.00,34.00,APPROVED
KS: KANSAS CITY,01/05/2020 10:46:00,,2145.00,1327.00,408.00,217.00,136.00,154.00,97.00,37.00,APPROVED
KS: KANSAS CITY,01/05/2020 11:46:00,,2147.00,1332.00,417.00,222.00,137.00,157.00,99.00,38.00,APPROVED
KS: KANSAS CITY,01/05/2020 12:47:00,,2141.00,1337.00,418.00,222.00,136.00,156.00,99.00,36.00,APPROVED
KS: KANSAS CITY,01/05/2020 13:47:00,,2165.00,1346.00,414.00,219.00,136.00,157.00,98.00,36.00,APPROVED
KS: KANSAS CITY,01/05/2020 14:47:00,,2183.00,1363.00,422.00,224.00,138.00,163.00,101.00,35.00,APPROVED
KS: KANSAS CITY,01/05/2020 15:47:00,,2214.00,1408.00,433.00,236.00,140.00,166.00,102.00,36.00,APPROVED
KS: KANSAS CITY,01/05/2020 16:47:00,,2162.00,1421.00,441.00,249.00,147.00,174.00,106.00,40.00,APPROVED
KS: KANSAS CITY,01/05/2020 17:48:00,,2071.00,1371.00,424.00,248.00,144.00,171.00,109.00,40.00,APPROVED
KS: KANSAS CITY,01/05/2020 18:48:00,,2024.00,1329.00,419.00,239.00,142.00,169.00,105.00,38.00,APPROVED
KS: KANSAS CITY,01/05/2020 19:48:00,,2005.00,1305.00,408.00,230.00,141.00,166.00,104.00,37.00,APPROVED
KS: KANSAS CITY,01/05/2020 20:48:00,,1991.00,1291.00,402.00,227.00,140.00,164.00,102.00,36.00,APPROVED
KS: KANSAS CITY,01/05/2020 21:48:00,,1966.00,1269.00,406.00,223.00,135.00,158.00,101.00,36.00,APPROVED
KS: KANSAS CITY,01/05/2020 22:49:00,,1955.00,1259.00,401.00,219.00,137.00,158.00,102.00,35.00,APPROVED
KS: KANSAS CITY,01/05/2020 23:49:00,,1983.00,1272.00,401.00,217.00,133.00,156.00,99.00,37.00,APPROVED
KS: KANSAS CITY,01/06/2020 00:49:00,,2036.00,1290.00,410.00,220.00,138.00,156.00,100.00,36.00,APPROVED
KS: KANSAS CITY,01/06/2020 01:49:00,,2080.00,1312.00,410.00,223.00,137.00,156.00,97.00,36.00,APPROVED
KS: KANSAS CITY,01/06/2020 02:49:00,,2178.00,1406.00,424.00,238.00,145.00,168.00,105.00,37.00,APPROVED
KS: KANSAS CITY,01/06/2020 03:50:00,,2264.00,1532.00,459.00,266.00,152.00,180.00,111.00,41.00,APPROVED
KS: KANSAS CITY,01/06/2020 04:50:00,,2328.00,1591.00,475.00,281.00,157.00,195.00,112.00,42.00,APPROVED
KS: KANSAS CITY,01/06/2020 05:50:00,,2348.00,1602.00,480.00,288.00,160.00,196.00,114.00,44.00,APPROVED
KS: KANSAS CITY,01/06/2020 06:50:00,,2389.00,1658.00,494.00,298.00,163.00,200.00,116.00,44.00,APPROVED
KS: KANSAS CITY,01/06/2020 07:50:00,,2392.00,1693.00,505.00,301.00,164.00,207.00,117.00,46.00,APPROVED
KS: KANSAS CITY,01/06/2020 08:51:00,,2410.00,1690.00,505.00,300.00,165.00,202.00,119.00,43.00,APPROVED
KS: KANSAS CITY,01/06/2020 09:51:00,,2448.00,1724.00,520.00,306.00,168.00,211.00,121.00,46.00,APPROVED
KS: KANSAS CITY,01/06/2020 10:51:00,,2431.00,1746.00,520.00,311.00,171.00,214.00,121.00,47.00,APPROVED
KS: KANSAS CITY,01/06/2020 11:51:00,,2443.00,1739.00,522.00,309.00,172.00,212.00,120.00,46.00,APPROVED
KS: KANSAS CITY,01/06/2020 12:51:00,,2399.00,1669.00,501.00,294.00,163.00,202.00,116.00,43.00,APPROVED
KS: KANSAS CITY,01/06/2020 13:52:00,,2325.00,1538.00,468.00,268.00,153.00,187.00,110.00,42.00,APPROVED
KS: KANSAS CITY,01/06/2020 14:52:00,,2260.00,1457.00,450.00,248.00,146.00,173.00,105.00,40.00,APPROVED
KS: KANSAS CITY,01/06/2020 15:52:00,,2233.00,1416.00,439.00,237.00,141.00,166.00,103.00,39.00,APPROVED
KS: KANSAS CITY,01/06/2020 16:52:00,,2199.00,1409.00,435.00,233.00,141.00,162.00,104.00,40.00,APPROVED
KS: KANSAS CITY,01/06/2020 17:52:00,,2155.00,1384.00,434.00,232.00,142.00,163.00,101.00,38.00,APPROVED
KS: KANSAS CITY,01/06/2020 18:53:00,,2067.00,1339.00,416.00,231.00,140.00,158.00,105.00,38.00,APPROVED
KS: KANSAS CITY,01/06/2020 19:53:00,,2037.00,1315.00,418.00,230.00,142.00,162.00,104.00,37.00,APPROVED
KS: KANSAS CITY,01/06/2020 20:53:00,,2082.00,1344.00,433.00,234.00,141.00,166.00,104.00,38.00,APPROVED
KS: KANSAS CITY,01/06/2020 21:53:00,,2101.00,1368.00,427.00,243.00,144.00,167.00,105.00,39.00,APPROVED
KS: KANSAS CITY,01/06/2020 22:53:00,,2098.00,1365.00,430.00,236.00,143.00,166.00,103.00,37.00,APPROVED
KS: KANSAS CITY,01/06/2020 23:54:00,,2104.00,1370.00,430.00,239.00,142.00,165.00,103.00,39.00,APPROVED
KS: KANSAS CITY,01/07/2020 00:54:00,,2207.00,1449.00,442.00,248.00,144.00,172.00,107.00,39.00,APPROVED
KS: KANSAS CITY,01/07/2020 01:54:00,,2269.00,1508.00,454.00,263.00,153.00,179.00,111.00,42.00,APPROVED
KS: KANSAS CITY,01/07/2020 02:54:00,,2273.00,1483.00,455.00,256.00,150.00,180.00,108.00,41.00,APPROVED
KS: KANSAS CITY,01/07/2020 03:55:00,,2289.00,1486.00,454.00,260.00,149.00,178.00,105.00,40.00,APPROVED
KS: KANSAS CITY,01/07/2020 04:55:00,,2297.00,1486.00,453.00,257.00,150.00,174.00,105.00,40.00,APPROVED
KS: KANSAS CITY,01/07/2020 05:55:00,,2274.00,1474.00,451.00,251.00,149.00,173.00,106.00,39.00,APPROVED
KS: KANSAS CITY,01/07/2020 06:55:00,,2264.00,1462.00,443.00,249.00,146.00,171.00,105.00,39.00,APPROVED
KS: KANSAS CITY,01/07/2020 07:55:00,,2268.00,1458.00,449.00,245.00,143.00,173.00,105.00,40.00,APPROVED
KS: KANSAS CITY,01/07/2020 08:56:00,,2268.00,1455.00,440.00,243.00,147.00,172.00,103.00,39.00,APPROVED
KS: KANSAS CITY,01/07/2020 09:56:00,,2270.00,1450.00,440.00,243.00,147.00,168.00,100.00,38.00,APPROVED
KS: KANSAS CITY,01/07/2020 10:56:00,,2274.00,1455.00,447.00,246.00,147.00,167.00,103.00,40.00,APPROVED
KS: KANSAS CITY,01/07/2020 11:56:00,,2277.00,1446.00,439.00,239.00,147.00,169.00,102.00,40.00,APPROVED
KS: KANSAS CITY,01/07/2020 12:56:00,,2280.00,1449.00,441.00,241.00,141.00,171.00,102.00,38.00,APPROVED
KS: KANSAS CITY,01/07/2020 13:57:00,,2263.00,1457.00,440.00,242.00,145.00,173.00,104.00,38.00,APPROVED
KS: KANSAS CITY,01/07/2020 14:57:00,,2247.00,1442.00,439.00,241.00,144.00,167.00,103.00,37.00,APPROVED
KS: KANSAS CITY,01/07/2020 15:57:00,,2230.00,1421.00,435.00,242.00,147.00,169.00,105.00,38.00,APPROVED
KS: KANSAS CITY,01/07/2020 16:57:00,,2177.00,1403.00,437.00,239.00,147.00,171.00,104.00,40.00,APPROVED
KS: KANSAS CITY,01/07/2020 17:57:00,,2116.00,1385.00,433.00,246.00,148.00,172.00,106.00,41.00,APPROVED
KS: KANSAS CITY,01/07/2020 18:58:00,,2048.00,1351.00,430.00,242.00,145.00,171.00,108.00,40.00,APPROVED
KS: KANSAS CITY,01/07/2020 19:58:00,,2015.00,1341.00,427.00,238.00,144.00,169.00,107.00,39.00,APPROVED
KS: KANSAS CITY,01/07/2020 20:58:00,,2045.00,1360.00,430.00,243.00,145.00,170.00,108.00,41.00,APPROVED
KS: KANSAS CITY,01/07/2020 21:58:00,,2060.00,1381.00,435.00,247.00,147.00,172.00,109.00,40.00,APPROVED
KS: KANSAS CITY,01/07/2020 22:58:00,,2049.00,1375.00,432.00,251.00,148.00,172.00,111.00,41.00,APPROVED
KS: KANSAS CITY,01/07/2020 23:59:00,,2065.00,1385.00,433.00,248.00,149.00,173.00,113.00,40.00,APPROVED
KS: KANSAS CITY,01/08/2020 00:59:00,,2115.00,1387.00,436.00,251.00,148.00,177.00,108.00,40.00,APPROVED
KS: KANSAS CITY,01/08/2020 01:59:00,,2137.00,1414.00,437.00,253.00,146.00,176.00,108.00,40.00,APPROVED
KS: KANSAS CITY,01/08/2020 02:59:00,,2175.00,1423.00,446.00,254.00,151.00,178.00,111.00,42.00,APPROVED
KS: KANSAS CITY,01/08/2020 03:59:00,,2223.00,1472.00,454.00,257.00,151.00,179.00,111.00,42.00,APPROVED
KS: KANSAS CITY,01/08/2020 05:00:00,,2283.00,1531.00,460.00,270.00,153.00,184.00,112.00,41.00,APPROVED
KS: KANSAS CITY,01/08/2020 06:00:00,,2385.00,1638.00,480.00,290.00,162.00,196.00,116.00,44.00,APPROVED
KS: KANSAS CITY,01/08/2020 07:00:00,,2431.00,1682.00,503.00,304.00,170.00,202.00,120.00,46.00,APPROVED
KS: KANSAS CITY,01/08/2020 08:00:00,,2461.00,1732.00,523.00,313.00,171.00,213.00,124.00,48.00,APPROVED
KS: KANSAS CITY,01/08/2020 09:00:00,,2420.00,1651.00,492.00,296.00,167.00,201.00,118.00,47.00,APPROVED
KS: KANSAS CITY,01/08/2020 10:01:00,,2375.00,1577.00,481.00,281.00,160.00,189.00,116.00,45.00,APPROVED
KS: KANSAS CITY,01/08/2020 11:01:00,,2331.00,1540.00,463.00,273.00,157.00,186.00,112.00,43.00,APPROVED
KS: KANSAS CITY,01/08/2020 12:01:00,,2337.00,1531.00,467.00,268.00,152.00,180.00,111.00,41.00,APPROVED
KS: KANSAS CITY,01/08/2020 13:01:00,,2311.00,1511.00,453.00,258.00,147.00,180.00,107.00,40.00,APPROVED
KS: KANSAS CITY,01/08/2020 14:02:00,,2289.00,1490.00,449.00,258.00,150.00,176.00,106.00,40.00,APPROVED
KS: KANSAS CITY,01/08/2020 15:02:00,,2279.00,1468.00,450.00,252.00,150.00,174.00,106.00,41.00,APPROVED
KS: KANSAS CITY,01/08/2020 16:02:00,,2253.00,1459.00,449.00,248.00,148.00,170.00,106.00,40.00,APPROVED
KS: KANSAS CITY,01/08/2020 17:02:00,,2239.00,1434.00,444.00,247.00,145.00,172.00,107.00,38.00,APPROVED
KS: KANSAS CITY,01/08/2020 18:02:00,,2207.00,1432.00,444.00,246.00,149.00,174.00,107.00,39.00,APPROVED
KS: KANSAS CITY,01/08/2020 19:30:00,,2130.00,1324.00,417.00,222.00,141.00,158.00,102.00,34.00,APPROVED
KS: KANSAS CITY,01/08/2020 20:30:00,,2132.00,1370.00,425.00,239.00,144.00,169.00,105.00,36.00,APPROVED
KS: KANSAS CITY,01/08/2020 21:31:00,,2126.00,1377.00,422.00,247.00,144.00,171.00,108.00,38.00,APPROVED
KS: KANSAS CITY,01/08/2020 22:31:00,,2108.00,1379.00,428.00,249.00,149.00,173.00,109.00,39.00,APPROVED
KS: KANSAS CITY,01/08/2020 23:31:00,,2104.00,1380.00,426.00,244.00,145.00,172.00,107.00,38.00,APPROVED
KS: KANSAS CITY,01/09/2020 00:31:00,,2087.00,1354.00,420.00,237.00,142.00,167.00,107.00,37.00,APPROVED
KS: KANSAS CITY,01/09/2020 01:31:00,,2097.00,1350.00,414.00,238.00,141.00,167.00,104.00,37.00,APPROVED
KS: KANSAS CITY,01/09/2020 02:32:00,,2106.00,1355.00,420.00,235.00,142.00,166.00,106.00,37.00,APPROVED
KS: KANSAS CITY,01/09/2020 03:32:00,,2108.00,1360.00,417.00,233.00,142.00,168.00,104.00,35.00,APPROVED
KS: KANSAS CITY,01/09/2020 04:32:00,,2122.00,1368.00,418.00,238.00,142.00,166.00,103.00,37.00,APPROVED
KS: KANSAS CITY,01/09/2020 05:32:00,,2119.00,1351.00,421.00,235.00,143.00,165.00,103.00,38.00,APPROVED
KS: KANSAS CITY,01/09/2020 06:33:00,,2105.00,1347.00,416.00,234.00,142.00,166.00,103.00,36.00,APPROVED
KS: KANSAS CITY,01/09/2020 07:33:00,,2103.00,1355.00,424.00,234.00,141.00,166.00,104.00,37.00,APPROVED
KS: KANSAS CITY,01/09/2020 08:33:00,,2099.00,1337.00,413.00,228.00,142.00,165.00,104.00,36.00,APPROVED
KS: KANSAS CITY,01/09/2020 09:33:00,,2077.00,1336.00,415.00,231.00,140.00,163.00,108.00,36.00,APPROVED
KS: KANSAS CITY,01/09/2020 10:33:00,,2079.00,1326.00,415.00,230.00,141.00,162.00,103.00,38.00,APPROVED
KS: KANSAS CITY,01/09/2020 11:34:00,,2072.00,1319.00,411.00,230.00,140.00,162.00,100.00,35.00,APPROVED
KS: KANSAS CITY,01/09/2020 12:34:00,,2062.00,1329.00,407.00,229.00,138.00,164.00,106.00,37.00,APPROVED
KS: KANSAS CITY,01/09/2020 13:34:00,,2053.00,1312.00,414.00,228.00,137.00,164.00,105.00,36.00,APPROVED
KS: KANSAS CITY,01/09/2020 14:34:00,,2047.00,1319.00,411.00,232.00,139.00,164.00,105.00,37.00,APPROVED
KS: KANSAS CITY,01/09/2020 15:34:00,,2032.00,1314.00,409.00,230.00,139.00,161.00,104.00,37.00,APPROVED
KS: KANSAS CITY,01/09/2020 16:35:00,,2001.00,1303.00,411.00,229.00,137.00,162.00,102.00,37.00,APPROVED
KS: KANSAS CITY,01/09/2020 17:35:00,,1957.00,1276.00,410.00,232.00,136.00,168.00,103.00,38.00,APPROVED
KS: KANSAS CITY,01/09/2020 18:35:00,,1915.00,1277.00,410.00,234.00,143.00,169.00,106.00,39.00,APPROVED
KS: KANSAS CITY,01/09/2020 19:35:00,,1883.00,1272.00,410.00,236.00,143.00,168.00,109.00,39.00,APPROVED
KS: KANSAS CITY,01/09/2020 20:09:00,,1885.00,1273.00,409.00,235.00,141.00,169.00,113.00,39.00,APPROVED
KS: KANSAS CITY,01/09/2020 21:14:00,,1887.00,1242.00,403.00,226.00,137.00,168.00,104.00,37.00,APPROVED
KS: KANSAS CITY,01/09/2020 22:14:00,,1902.00,1282.00,413.00,243.00,146.00,176.00,110.00,40.00,APPROVED
KS: KANSAS CITY,01/09/2020 23:14:00,,1939.00,1325.00,431.00,257.00,150.00,181.00,114.00,42.00,APPROVED
KS: KANSAS CITY,01/10/2020 00:15:00,,2016.00,1384.00,443.00,270.00,148.00,186.00,117.00,43.00,APPROVED
KS: KANSAS CITY,01/10/2020 01:15:00,,2157.00,1541.00,464.00,292.00,163.00,198.00,121.00,47.00,APPROVED
KS: KANSAS CITY,01/10/2020 02:15:00,,2348.00,1730.00,517.00,349.00,182.00,223.00,133.00,52.00,APPROVED
KS: KANSAS CITY,01/10/2020 03:15:00,,2395.00,1741.00,524.00,348.00,184.00,229.00,136.00,56.00,APPROVED
KS: KANSAS CITY,01/10/2020 04:15:00,,2377.00,1709.00,515.00,334.00,178.00,219.00,132.00,53.00,APPROVED
KS: KANSAS CITY,01/10/2020 05:16:00,,2379.00,1689.00,506.00,328.00,177.00,215.00,131.00,52.00,APPROVED
KS: KANSAS CITY,01/10/2020 06:16:00,,2366.00,1666.00,506.00,327.00,175.00,216.00,128.00,54.00,APPROVED
KS: KANSAS CITY,01/10/2020 07:16:00,,2377.00,1668.00,509.00,321.00,174.00,213.00,128.00,51.00,APPROVED
KS: KANSAS CITY,01/10/2020 08:16:00,,2384.00,1675.00,507.00,326.00,175.00,215.00,127.00,50.00,APPROVED
KS: KANSAS CITY,01/10/2020 09:16:00,,2394.00,1680.00,511.00,330.00,174.00,214.00,127.00,50.00,APPROVED
KS: KANSAS CITY,01/10/2020 10:17:00,,2407.00,1703.00,509.00,327.00,173.00,215.00,129.00,49.00,APPROVED
KS: KANSAS CITY,01/10/2020 11:17:00,,2403.00,1678.00,509.00,327.00,175.00,212.00,126.00,50.00,APPROVED
KS: KANSAS CITY,01/10/2020 12:17:00,,2426.00,1703.00,509.00,328.00,175.00,211.00,129.00,50.00,APPROVED
KS: KANSAS CITY,01/10/2020 13:17:00,,3162.00,2363.00,672.00,452.00,226.00,286.00,161.00,64.00,APPROVED
KS: KANSAS CITY,01/10/2020 14:17:00,,3079.00,2266.00,674.00,451.00,223.00,286.00,159.00,64.00,APPROVED